Location: Auckland
(36.8670°S, 174.7670°E)
Time: 12:26:09
(UTC+12:00)

Courier 1B Rocket - Pass Details

Date: 27 July 2019
Orbit: 920 x 1202 km, 28.3° (Epoch: 19 August)

Event Time Altitude Azimuth Distance (km) Brightness Sun altitude
Rises 07:27:09 0° 274° (W) 4,069 7.7 -0.3°
Reaches altitude 10° 07:30:41 10° 288° (WNW) 3,071 7.2 0.4°
Maximum altitude 07:36:20 23° 336° (NNW) 2,187 6.9 1.4°
Drops below altitude 10° 07:41:45 10° 25° (NNE) 2,915 8.4 2.4°
Sets 07:45:01 0° 39° (NE) 3,815 9.5 3.0°
